This is the latest recevied weather packets stored in our database for station/object KC0UFP. If no packets are shown the sender has not sent any weather packets the latest 10 day(s).
| Time | Temp. | Humidity | Pressure | Rain* | Wind** | Luminosity | Snow |
|---|---|---|---|---|---|---|---|
| 1778096278 | 13.33° C | 73% | 1015.5 hPa | 0 mm | - | 103 W/m² | - |
| 1778095974 | 13.33° C | 71% | 1015.2 hPa | 0 mm | - | 141 W/m² | - |
| 1778095670 | 13.33° C | 70% | 1015 hPa | 0 mm | - | 136 W/m² | - |
| 1778095368 | 13.33° C | 71% | 1015.2 hPa | 0 mm | - | 167 W/m² | - |
| 1778095064 | 13.33° C | 72% | 1015.7 hPa | 0 mm | - | 246 W/m² | - |
| 1778094761 | 13.33° C | 73% | 1015.9 hPa | 0 mm | - | 290 W/m² | - |
| 1778094458 | 13.33° C | 70% | 1016.4 hPa | 0 mm | - | 149 W/m² | - |
| 1778094154 | 12.78° C | 70% | 1016.4 hPa | 0 mm | - | 104 W/m² | - |
| 1778093852 | 12.78° C | 68% | 1016.2 hPa | 0 mm | - | 78 W/m² | - |
| 1778093548 | 13.33° C | 67% | 1016 hPa | 0 mm | - | 68 W/m² | - |
| 1778093245 | 13.33° C | 69% | 1015.9 hPa | 0 mm | - | 81 W/m² | - |
| 1778092943 | 13.33° C | 69% | 1015.8 hPa | 0 mm | - | 103 W/m² | - |
| 1778092639 | 13.33° C | 70% | 1015.5 hPa | 0 mm | - | 153 W/m² | - |
| 1778092335 | 13.33° C | 69% | 1015.3 hPa | 0 mm | - | 254 W/m² | - |
| 1778092032 | 13.33° C | 70% | 1015.5 hPa | 0 mm | - | 337 W/m² | - |
| 1778091729 | 13.33° C | 70% | 1015.2 hPa | 0 mm | - | 311 W/m² | - |
| 1778091427 | 13.33° C | 70% | 1015.1 hPa | 0 mm | - | 381 W/m² | - |
| 1778091125 | 13.33° C | 71% | 1015.3 hPa | 0 mm | - | 395 W/m² | - |
| 1778090822 | 13.33° C | 70% | 1015.3 hPa | 0 mm | - | 422 W/m² | - |
| 1778090518 | 13.33° C | 71% | 1015.7 hPa | 0 mm | - | 412 W/m² | - |
| 1778090214 | 13.33° C | 71% | 1015.5 hPa | 0 mm | - | 368 W/m² | - |
| 1778089911 | 13.33° C | 70% | 1015.5 hPa | 0 mm | - | 411 W/m² | - |
| 1778089609 | 13.33° C | 70% | 1015.3 hPa | 0 mm | - | 448 W/m² | - |
| 1778089305 | 13.33° C | 70% | 1015.3 hPa | 0 mm | - | 313 W/m² | - |
| 1778089004 | 13.33° C | 70% | 1015.4 hPa | 0 mm | - | 315 W/m² | - |
* Rain latest hour (hover to see other rain measurements)
** Current wind speed in m/s (hover to see current wind gust speed)